Aérodrome :
LOGIN :

S'inscrire | Disclaimer

   EN    FR    IT 

 










Légende :    VFR   VFR Marginal   IFR   IFR Intensif   IFR Très Intensif
Visi : 
Plafond : 
>= 8 km
>= 3000ft
5 à 8 km
1000 à 3000 ft
1500m à 5 km
500 à 1000 ft
800 à 1500m
200 à 500 ft
< 800m
< 200 ft
Symboles :   Orages  Brouillard  Fortes neiges  Fortes précipitations  Vent > 20 kt
SIGMETs :   Divers  Orages  Givrage  Turbulence  Onde Orograph.  Cendres Volcan.







- Altitude de l'aérodrome : 2356 ft


LZTT - Poprad Tatry

DERNIER METAR :
  • 190230Z VRB01KT CAVOK M06/M08 Q1019

METARs EXPIRÉS :
  • 190200Z VRB01KT CAVOK M06/M07 Q1019
  • 190130Z 27003KT CAVOK M06/M07 Q1019
  • 190100Z VRB01KT CAVOK M06/M08 Q1020
  • 190030Z VRB02KT CAVOK M05/M07 Q1020
  • 190000Z 31003KT 280V340 CAVOK M05/M07 Q1020

TAF TAF LZTT
Valide du 19 à 00h jusqu'au 20 à 00h UTC


182300Z 1900/2000 VRB02KT CAVOK
PROB30
TEMPO 1902/1908 2200 BCFG FEW004
BECMG 1910/1912 26008KT
TEMPO 1912/1916 25015KT
Pas de NOTAMs connus pour ce terrain.



MET'MAP, la Météo Aéronautique d'un coup d'oeil ! - Copyright ORBIFLY Décembre 2007 - Disclaimer

ORBIFLY MET'MAP TEAM :

Programmation & Développement : Alexandra Zaïnal
Conception & Développement : Baudouin d'Aumeries
Co-Programmation & Développement : Marc-Olivier Méhu
Soutien technique & logistique : Manuel Goepfert

Contact : metmap@orbifly.com




SOURCES & CREDITS :

   NOAA